Date String (YYYY-MM-DD hh:mm:ss) UTC,Instrument flags,Ambient pressure (hPa),Sample flow (lpm),Bypass flow (lpm),Sample temperature (°C),Ambient temperature (°C),ASC tube jacket temperature (°C),LED temperature (°C),Box temperature (°C),Sample RH (%),Span deviation,Mass concentration (μg/m³),Mass concentration (μg/m³),Mass concentration (μg/m³)
DateTimeUTC,F1_M11,P_M11,Q1_M11,Q2_M11,T1_M11,T2_M11,T3_M11,T4_M11,T5_M11,U1_M11,ZSPAN_M11,X0_M11,X2_M11,X1_M11
2022-05-11 08:00:00,,0823.1,5.00,0.00,27.2,26.4,00.0,36.3,29.0,14.0,0000.0,0022.08,0005.07,0002.36
2022-05-11 08:01:00,,0823.1,4.99,0.00,27.2,26.4,00.0,36.3,29.0,14.0,0000.0,0021.32,0005.03,0002.37
2022-05-11 08:02:00,,0823.1,5.01,0.00,27.2,26.4,00.0,36.3,29.0,14.0,0000.0,0020.62,0004.94,0002.33
2022-05-11 08:03:00,,0823.1,4.99,0.00,27.2,26.4,00.0,36.3,29.0,14.0,0000.0,0020.96,0004.98,0002.33
2022-05-11 08:04:00,,0823.1,5.01,0.00,27.2,26.4,00.0,36.3,29.0,14.0,0000.0,0021.62,0005.00,0002.31
2022-05-11 08:05:00,,0823.1,5.00,0.00,27.2,26.4,00.0,36.3,29.0,13.9,0000.0,0020.64,0004.96,0002.29
2022-05-11 08:06:00,,0823.1,5.00,0.00,27.2,26.4,00.0,36.3,29.0,14.0,0000.0,0020.45,0004.83,0002.26
2022-05-11 08:07:00,,0823.1,5.00,0.00,27.2,26.4,00.0,36.2,29.0,14.0,0000.0,0019.87,0004.74,0002.24
2022-05-11 08:08:00,,0823.1,5.01,0.00,27.2,26.4,00.0,36.2,29.0,13.9,0000.0,0019.43,0004.73,0002.24
2022-05-11 08:09:00,,0823.1,5.00,0.00,27.2,26.4,00.0,36.2,29.0,13.9,0000.0,0020.90,0004.73,0002.23
2022-05-11 08:10:00,,0823.1,5.00,0.00,27.1,26.4,00.0,36.2,28.9,13.9,0000.0,0021.39,0004.78,0002.23
2022-05-11 08:11:00,,0823.1,5.00,0.00,27.1,26.4,00.0,36.2,28.9,13.9,0000.0,0021.22,0004.80,0002.24
2022-05-11 08:12:00,,0823.1,4.99,0.00,27.1,26.4,00.0,36.2,28.9,13.9,0000.0,0021.33,0004.75,0002.20
2022-05-11 08:13:00,,0823.0,5.01,0.00,27.1,26.4,00.0,36.2,28.9,13.8,0000.0,0021.88,0004.75,0002.19
2022-05-11 08:14:00,,0823.1,4.99,0.00,27.1,26.4,00.0,36.2,28.9,13.8,0000.0,0021.22,0004.70,0002.18
2022-05-11 08:15:00,,0823.1,5.01,0.00,27.1,26.4,00.0,36.2,28.9,13.8,0000.0,0020.32,0004.66,0002.18
2022-05-11 08:16:00,,0823.1,5.01,0.00,27.1,26.4,00.0,36.2,28.9,13.8,0000.0,0021.28,0004.68,0002.20
2022-05-11 08:17:00,,0823.1,5.00,0.00,27.1,26.4,00.0,36.2,28.9,13.8,0000.0,0021.51,0004.71,0002.21
2022-05-11 08:18:00,,0823.1,5.00,0.00,27.1,26.4,00.0,36.2,28.9,13.8,0000.0,0021.74,0004.73,0002.20
2022-05-11 08:19:00,,0823.1,4.99,0.00,27.1,26.4,00.0,36.2,28.9,13.8,0000.0,0021.61,0004.69,0002.20
2022-05-11 08:20:00,,0823.1,5.01,0.00,27.1,26.4,00.0,36.2,28.9,13.8,0000.0,0019.92,0004.70,0002.20
2022-05-11 08:21:00,,0823.0,4.99,0.00,27.1,26.4,00.0,36.2,28.9,13.8,0000.0,0019.29,0004.71,0002.21
2022-05-11 08:22:00,,0823.0,5.01,0.00,27.1,26.4,00.0,36.1,28.9,13.7,0000.0,0018.59,0004.64,0002.19
2022-05-11 08:23:00,,0823.0,4.99,0.00,27.1,26.3,00.0,36.1,28.9,13.8,0000.0,0018.04,0004.64,0002.20
2022-05-11 08:24:00,,0823.0,5.01,0.00,27.1,26.3,00.0,36.1,28.8,13.8,0000.0,0017.22,0004.66,0002.25
2022-05-11 08:25:00,,0822.9,5.01,0.00,27.0,26.3,00.0,36.1,28.9,13.8,0000.0,0016.98,0004.67,0002.26
2022-05-11 08:26:00,,0823.0,4.99,0.00,27.0,26.3,00.0,36.1,28.8,13.8,0000.0,0017.07,0004.73,0002.28
2022-05-11 08:27:00,,0822.9,5.00,0.00,27.0,26.3,00.0,36.1,28.8,13.7,0000.0,0016.43,0004.75,0002.29
2022-05-11 08:28:00,,0822.9,4.99,0.00,27.0,26.3,00.0,36.1,28.8,13.7,0000.0,0015.96,0004.81,0002.27
2022-05-11 08:29:00,,0823.0,5.01,0.00,27.0,26.3,00.0,36.1,28.9,13.7,0000.0,0015.59,0004.87,0002.30
2022-05-11 08:30:00,,0822.9,5.01,0.00,27.0,26.3,00.0,36.1,28.8,13.8,0000.0,0015.49,0004.93,0002.32
2022-05-11 08:31:00,,0822.9,4.99,0.00,27.0,26.3,00.0,36.1,28.8,13.7,0000.0,0015.42,0004.98,0002.33
2022-05-11 08:32:00,,0822.9,5.00,0.00,27.0,26.3,00.0,36.1,28.8,13.7,0000.0,0015.39,0004.98,0002.34
2022-05-11 08:33:00,,0822.9,5.01,0.00,27.0,26.3,00.0,36.1,28.8,13.7,0000.0,0015.09,0005.04,0002.36
2022-05-11 08:34:00,,0822.9,4.99,0.00,27.0,26.3,00.0,36.1,28.8,13.8,0000.0,0015.85,0005.11,0002.40
2022-05-11 08:35:00,,0823.0,5.00,0.00,27.0,26.2,00.0,36.1,28.8,13.8,0000.0,0015.92,0005.16,0002.41
2022-05-11 08:36:00,,0822.9,5.01,0.00,27.0,26.2,00.0,36.0,28.8,13.8,0000.0,0016.25,0005.23,0002.41
2022-05-11 08:37:00,,0822.9,4.99,0.00,27.0,26.2,00.0,36.0,28.8,13.8,0000.0,0017.05,0005.18,0002.43
2022-05-11 08:38:00,,0822.9,5.01,0.00,27.0,26.2,00.0,36.0,28.8,13.8,0000.0,0016.83,0005.20,0002.43
2022-05-11 08:39:00,,0822.9,4.99,0.00,27.0,26.2,00.0,36.0,28.8,13.7,0000.0,0016.91,0005.26,0002.47
2022-05-11 08:40:00,,0822.9,5.01,0.00,27.0,26.2,00.0,36.0,28.8,13.7,0000.0,0017.31,0005.23,0002.48
2022-05-11 08:41:00,,0822.9,4.99,0.00,27.0,26.2,00.0,36.0,28.7,13.7,0000.0,0017.54,0005.19,0002.46
2022-05-11 08:42:00,,0822.9,5.00,0.00,27.0,26.2,00.0,36.0,28.7,13.7,0000.0,0018.04,0005.12,0002.46
2022-05-11 08:43:00,,0822.9,5.00,0.00,27.0,26.2,00.0,36.0,28.8,13.7,0000.0,0020.15,0005.15,0002.49
2022-05-11 08:44:00,,0822.9,4.99,0.00,26.9,26.2,00.0,36.0,28.8,13.7,0000.0,0020.43,0005.16,0002.46
2022-05-11 08:45:00,,0822.9,5.01,0.00,26.9,26.2,00.0,36.0,28.8,13.7,0000.0,0019.93,0005.16,0002.44
2022-05-11 08:46:00,,0822.9,5.00,0.00,26.9,26.2,00.0,36.0,28.7,13.7,0000.0,0020.36,0005.12,0002.42
2022-05-11 08:47:00,,0822.9,4.99,0.00,26.9,26.2,00.0,36.0,28.7,13.7,0000.0,0020.47,0005.04,0002.40
2022-05-11 08:48:00,,0822.9,5.01,0.00,26.9,26.2,00.0,36.0,28.7,13.7,0000.0,0019.36,0005.09,0002.39
2022-05-11 08:49:00,,0822.9,4.98,0.00,26.9,26.1,00.0,36.0,28.7,13.6,0000.0,0018.84,0005.02,0002.37
2022-05-11 08:50:00,,0823.0,5.00,0.00,26.9,26.1,00.0,36.0,28.7,13.6,0000.0,0019.11,0005.00,0002.36
2022-05-11 08:51:00,,0823.0,5.01,0.00,26.9,26.1,00.0,36.0,28.7,13.6,0000.0,0018.72,0004.95,0002.38
2022-05-11 08:52:00,,0822.9,4.99,0.00,26.9,26.1,00.0,35.9,28.7,13.6,0000.0,0019.10,0004.98,0002.37
2022-05-11 08:53:00,,0823.0,4.99,0.00,26.9,26.1,00.0,35.9,28.7,13.6,0000.0,0018.92,0005.05,0002.36
2022-05-11 08:54:00,,0823.0,5.01,0.00,26.9,26.1,00.0,35.9,28.7,13.6,0000.0,0016.58,0005.00,0002.36
2022-05-11 08:55:00,,0822.9,5.00,0.00,26.9,26.1,00.0,35.9,28.6,13.5,0000.0,0016.60,0004.95,0002.36
2022-05-11 08:56:00,,0822.9,4.99,0.00,26.8,26.1,00.0,35.9,28.6,13.5,0000.0,0018.10,0004.94,0002.39
2022-05-11 08:57:00,,0822.9,5.00,0.00,26.8,26.1,00.0,35.9,28.6,13.5,0000.0,0018.26,0004.91,0002.38
2022-05-11 08:58:00,,0823.0,5.00,0.00,26.8,26.1,00.0,35.9,28.6,13.5,0000.0,0017.89,0004.94,0002.40
2022-05-11 08:59:00,,0822.9,5.00,0.00,26.8,26.1,00.0,35.9,28.6,13.5,0000.0,0017.94,0004.95,0002.41
